| time (UTC) | temp F | wind direction | speed MPH | gust MPH | rain 1hr in | rain 24hr in | rain mn in | humidity % | barometer mb |
| 20260507013500 | 66 | 0.0 | 0.0 | 0.00 | 0.00 | 0.00 | 55 | 969.0 | |
| 20260507003500 | 68 | 0.0 | 0.0 | 0.00 | 0.00 | 0.00 | 41 | 969.0 | |
| 20260506233502 | 68 | 0.0 | 0.0 | 0.00 | 0.00 | 0.00 | 39 | 969.0 | |
| 20260506223500 | 68 | 0.0 | 0.0 | 0.00 | 0.00 | 0.00 | 37 | 969.0 | |
| 20260506213500 | 68 | 0.0 | 0.0 | 0.00 | 0.00 | 0.00 | 35 | 969.0 | |
| 20260506203501 | 69 | 0.0 | 0.0 | 0.00 | 0.00 | 0.00 | 34 | 969.0 | |
| 20260506193500 | 71 | 0.0 | 0.0 | 0.00 | 0.00 | 0.00 | 34 | 969.0 | |
| 20260506183500 | 71 | 0.0 | 0.0 | 0.00 | 0.00 | 0.00 | 32 | 969.0 | |
| 20260506173500 | 75 | 0.0 | 0.0 | 0.00 | 0.00 | 0.00 | 29 | 968.0 | |
| 20260506163500 | 82 | 0.0 | 0.0 | 0.00 | 0.00 | 0.00 | 23 | 968.0 | |
| 20260506153501 | 91 | 0.0 | 0.0 | 0.00 | 0.00 | 0.00 | 19 | 968.0 | |
| 20260506143500 | 87 | 0.0 | 0.0 | 0.00 | 0.00 | 0.00 | 22 | 968.0 | |
| 20260506133500 | 86 | 0.0 | 0.0 | 0.00 | 0.00 | 0.00 | 23 | 968.0 | |
| 20260506123500 | 80 | 0.0 | 0.0 | 0.00 | 0.00 | 0.00 | 25 | 968.0 | |
| 20260506113500 | 77 | 0.0 | 0.0 | 0.00 | 0.00 | 0.00 | 28 | 968.0 | |
| 20260506093501 | 73 | 0.0 | 0.0 | 0.00 | 0.00 | 0.00 | 27 | 969.0 | |
| 20260506083500 | 71 | 0.0 | 0.0 | 0.00 | 0.00 | 0.00 | 30 | 968.0 | |
| 20260506073500 | 69 | 0.0 | 0.0 | 0.00 | 0.00 | 0.00 | 34 | 968.0 | |
| 20260506043500 | 64 | 0.0 | 0.0 | 0.00 | 0.00 | 0.00 | 38 | 968.0 | |
| 20260506033501 | 64 | 0.0 | 0.0 | 0.00 | 0.00 | 0.00 | 35 | 968.0 |